| time (UTC) | temp F | wind direction | speed MPH | gust MPH | rain 1hr in | rain 24hr in | rain mn in | humidity % | barometer mb |
| 20260903093009 | 77 | 140 | 0.0 | 0.0 | 0.00 | 0.00 | 0.00 | 85 | 1014.2 |
| 20260903091508 | 77 | 141 | 0.0 | 0.0 | 0.00 | 0.00 | 0.00 | 84 | 1014.2 |
| 20260903090007 | 77 | 140 | 0.0 | 0.0 | 0.00 | 0.00 | 0.00 | 84 | 1014.1 |
| 20260903084522 | 77 | 140 | 0.0 | 0.0 | 0.00 | 0.00 | 0.00 | 85 | 1014.1 |
| 20260903083012 | 77 | 140 | 0.0 | 0.0 | 0.00 | 0.00 | 0.00 | 84 | 1014.1 |
| 20260903081503 | 78 | 141 | 0.0 | 0.0 | 0.00 | 0.00 | 0.00 | 84 | 1014.1 |
| 20260903080002 | 78 | 140 | 0.0 | 0.0 | 0.00 | 0.00 | 0.00 | 84 | 1014.1 |
| 20260903074606 | 78 | 140 | 0.0 | 0.0 | 0.00 | 0.00 | 0.00 | 83 | 1013.9 |
| 20260903073059 | 79 | 141 | 0.0 | 6.0 | 0.00 | 0.00 | 0.00 | 82 | 1013.9 |
| 20260903071558 | 79 | 130 | 0.0 | 0.0 | 0.00 | 0.00 | 0.00 | 82 | 1013.7 |
| 20260903070056 | 78 | 130 | 0.0 | 0.0 | 0.00 | 0.00 | 0.00 | 83 | 1013.8 |
| 20260903064603 | 79 | 130 | 0.0 | 0.0 | 0.00 | 0.00 | 0.00 | 82 | 1013.8 |
| 20260903063053 | 79 | 130 | 0.0 | 0.0 | 0.00 | 0.00 | 0.00 | 81 | 1013.8 |
| 20260903061552 | 79 | 130 | 0.0 | 0.0 | 0.00 | 0.00 | 0.00 | 81 | 1013.7 |
| 20260903060055 | 80 | 130 | 0.0 | 0.0 | 0.00 | 0.00 | 0.00 | 80 | 1013.7 |
| 20260903054550 | 79 | 130 | 0.0 | 0.0 | 0.00 | 0.00 | 0.00 | 81 | 1013.8 |
| 20260903053102 | 80 | 130 | 0.0 | 0.0 | 0.00 | 0.00 | 0.00 | 80 | 1013.8 |
| 20260903051549 | 80 | 130 | 0.0 | 0.0 | 0.00 | 0.00 | 0.00 | 80 | 1013.7 |
| 20260903050046 | 80 | 130 | 0.0 | 0.0 | 0.00 | 0.00 | 0.00 | 79 | 1013.7 |
| 20260903044544 | 80 | 130 | 0.0 | 0.0 | 0.00 | 0.00 | 0.00 | 80 | 1013.5 |
| 20260903043042 | 81 | 130 | 0.0 | 0.0 | 0.00 | 0.00 | 0.00 | 79 | 1013.5 |
| 20260903041551 | 81 | 130 | 0.0 | 0.0 | 0.00 | 0.00 | 0.00 | 78 | 1013.5 |
| 20260903040046 | 81 | 130 | 0.0 | 0.0 | 0.00 | 0.00 | 0.00 | 77 | 1013.6 |
| 20260903034538 | 82 | 130 | 0.0 | 0.0 | 0.00 | 0.00 | 0.00 | 76 | 1013.6 |
| 20260903033037 | 82 | 130 | 0.0 | 0.0 | 0.00 | 0.00 | 0.00 | 75 | 1013.6 |
| 20260903031536 | 83 | 130 | 0.0 | 0.0 | 0.00 | 0.00 | 0.00 | 75 | 1013.8 |
| 20260903030041 | 83 | 130 | 0.0 | 0.0 | 0.00 | 0.00 | 0.00 | 74 | 1013.9 |
| 20260903024535 | 83 | 130 | 0.0 | 0.0 | 0.00 | 0.00 | 0.00 | 73 | 1013.9 |
| 20260903023036 | 84 | 130 | 0.0 | 0.0 | 0.00 | 0.00 | 0.00 | 71 | 1013.9 |
| 20260903021534 | 85 | 130 | 0.0 | 0.0 | 0.00 | 0.00 | 0.00 | 70 | 1013.9 |
| 20260903020033 | 85 | 165 | 0.0 | 0.0 | 0.00 | 0.00 | 0.00 | 69 | 1014.0 |
| 20260903014533 | 85 | 137 | 0.0 | 0.0 | 0.00 | 0.00 | 0.00 | 68 | 1013.9 |
| 20260903013034 | 86 | 203 | 0.0 | 0.0 | 0.00 | 0.00 | 0.00 | 67 | 1013.8 |
| 20260903011532 | 86 | 203 | 0.0 | 0.0 | 0.00 | 0.00 | 0.00 | 66 | 1013.6 |
| 20260903010035 | 87 | 216 | 0.0 | 0.0 | 0.00 | 0.00 | 0.00 | 65 | 1013.4 |
| 20260903004531 | 88 | 217 | 0.0 | 0.0 | 0.00 | 0.00 | 0.00 | 63 | 1013.2 |
| 20260903003030 | 88 | 216 | 0.0 | 0.0 | 0.00 | 0.00 | 0.00 | 62 | 1013.1 |
| 20260903001550 | 89 | 216 | 0.0 | 0.0 | 0.00 | 0.00 | 0.00 | 60 | 1013.2 |
| 20260903000029 | 90 | 231 | 0.0 | 0.0 | 0.00 | 0.00 | 0.00 | 59 | 1013.2 |
| 20260902234528 | 91 | 226 | 0.0 | 0.0 | 0.00 | 0.00 | 0.00 | 58 | 1013.2 |
| 20260902233026 | 91 | 145 | 0.0 | 0.0 | 0.00 | 0.00 | 0.00 | 57 | 1013.3 |
| 20260902231529 | 92 | 233 | 0.0 | 6.0 | 0.00 | 0.00 | 0.00 | 56 | 1013.4 |
| 20260902230025 | 93 | 250 | 0.0 | 6.0 | 0.00 | 0.00 | 0.00 | 55 | 1013.4 |
| 20260902224524 | 93 | 243 | 0.0 | 5.0 | 0.00 | 0.00 | 0.00 | 54 | 1013.5 |
| 20260902223023 | 93 | 242 | 1.0 | 6.0 | 0.00 | 0.00 | 0.00 | 53 | 1013.4 |
| 20260902221522 | 94 | 226 | 0.0 | 0.0 | 0.00 | 0.00 | 0.00 | 52 | 1013.5 |
| 20260902220021 | 95 | 241 | 0.0 | 2.0 | 0.00 | 0.00 | 0.00 | 51 | 1013.5 |
| 20260902214521 | 95 | 259 | 0.0 | 5.0 | 0.00 | 0.00 | 0.00 | 50 | 1013.5 |
| 20260902213020 | 95 | 199 | 0.0 | 2.0 | 0.00 | 0.00 | 0.00 | 50 | 1013.6 |
| 20260902211519 | 97 | 256 | 2.0 | 9.0 | 0.00 | 0.00 | 0.00 | 48 | 1013.6 |
| 20260902210018 | 96 | 162 | 1.0 | 9.0 | 0.00 | 0.00 | 0.00 | 50 | 1013.7 |
| 20260902204517 | 96 | 266 | 0.0 | 1.0 | 0.00 | 0.00 | 0.00 | 49 | 1013.8 |
| 20260902203015 | 96 | 256 | 0.0 | 8.0 | 0.00 | 0.00 | 0.00 | 48 | 1013.9 |
| 20260902201516 | 96 | 288 | 1.0 | 4.0 | 0.00 | 0.00 | 0.00 | 49 | 1013.9 |
| 20260902200015 | 96 | 227 | 2.0 | 7.0 | 0.00 | 0.00 | 0.00 | 48 | 1014.0 |
| 20260902194513 | 96 | 282 | 0.0 | 7.0 | 0.00 | 0.00 | 0.00 | 49 | 1014.2 |
| 20260902193010 | 97 | 212 | 2.0 | 15.0 | 0.00 | 0.00 | 0.00 | 46 | 1014.4 |
| 20260902191510 | 97 | 257 | 0.0 | 5.0 | 0.00 | 0.00 | 0.00 | 47 | 1014.7 |
| 20260902190010 | 97 | 1 | 0.0 | 9.0 | 0.00 | 0.00 | 0.00 | 46 | 1014.7 |
| 20260902184508 | 96 | 267 | 0.0 | 1.0 | 0.00 | 0.00 | 0.00 | 47 | 1014.8 |
| 20260902183007 | 97 | 224 | 1.0 | 7.0 | 0.00 | 0.00 | 0.00 | 47 | 1015.0 |
| 20260902181505 | 96 | 227 | 4.0 | 8.0 | 0.00 | 0.00 | 0.00 | 48 | 1015.0 |
| 20260902180055 | 95 | 227 | 1.0 | 9.0 | 0.00 | 0.00 | 0.00 | 49 | 1015.1 |
| 20260902174554 | 97 | 235 | 2.0 | 8.0 | 0.00 | 0.00 | 0.00 | 49 | 1015.2 |
| 20260902173051 | 96 | 244 | 0.0 | 6.0 | 0.00 | 0.00 | 0.00 | 51 | 1015.4 |
| 20260902171610 | 96 | 336 | 0.0 | 4.0 | 0.00 | 0.00 | 0.00 | 50 | 1015.5 |
| 20260902170050 | 96 | 219 | 3.0 | 11.0 | 0.00 | 0.00 | 0.00 | 50 | 1015.6 |
| 20260902164546 | 95 | 340 | 0.0 | 6.0 | 0.00 | 0.00 | 0.00 | 52 | 1015.7 |
| 20260902163044 | 95 | 309 | 0.0 | 6.0 | 0.00 | 0.00 | 0.00 | 52 | 1016.0 |
| 20260902161548 | 94 | 226 | 2.0 | 5.0 | 0.00 | 0.00 | 0.00 | 53 | 1016.0 |
| 20260902160044 | 94 | 232 | 2.0 | 7.0 | 0.00 | 0.00 | 0.00 | 54 | 1016.0 |
| 20260902154540 | 94 | 297 | 0.0 | 5.0 | 0.00 | 0.00 | 0.00 | 55 | 1016.2 |
| 20260902153038 | 93 | 224 | 0.0 | 7.0 | 0.00 | 0.00 | 0.00 | 57 | 1016.2 |
| 20260902151537 | 92 | 39 | 0.0 | 0.0 | 0.00 | 0.00 | 0.00 | 59 | 1016.4 |
| 20260902150033 | 91 | 241 | 0.0 | 0.0 | 0.00 | 0.00 | 0.00 | 60 | 1016.4 |
| 20260902144534 | 90 | 340 | 0.0 | 5.0 | 0.00 | 0.00 | 0.00 | 63 | 1016.3 |
| 20260902143026 | 89 | 240 | 0.0 | 0.0 | 0.00 | 0.00 | 0.00 | 64 | 1016.3 |
| 20260902141532 | 89 | 221 | 1.0 | 5.0 | 0.00 | 0.00 | 0.00 | 64 | 1016.3 |
| 20260902140021 | 87 | 244 | 0.0 | 1.0 | 0.00 | 0.00 | 0.00 | 67 | 1016.3 |
| 20260902134523 | 86 | 228 | 0.0 | 6.0 | 0.00 | 0.00 | 0.00 | 68 | 1016.3 |
| 20260902133020 | 85 | 255 | 0.0 | 9.0 | 0.00 | 0.00 | 0.00 | 69 | 1016.3 |
| 20260902131512 | 84 | 231 | 0.0 | 5.0 | 0.00 | 0.00 | 0.00 | 70 | 1016.4 |
| 20260902130007 | 83 | 231 | 0.0 | 3.0 | 0.00 | 0.00 | 0.00 | 74 | 1016.3 |
| 20260902124504 | 81 | 242 | 0.0 | 0.0 | 0.00 | 0.00 | 0.00 | 78 | 1016.3 |
| 20260902123003 | 78 | 189 | 0.0 | 0.0 | 0.00 | 0.00 | 0.00 | 82 | 1016.1 |
| 20260902121502 | 77 | 248 | 0.0 | 0.0 | 0.00 | 0.00 | 0.00 | 85 | 1016.1 |
| 20260902120101 | 76 | 248 | 0.0 | 0.0 | 0.00 | 0.00 | 0.00 | 86 | 1015.9 |
| 20260902114559 | 75 | 249 | 0.0 | 0.0 | 0.00 | 0.00 | 0.00 | 87 | 1015.8 |
| 20260902113104 | 74 | 248 | 0.0 | 0.0 | 0.00 | 0.00 | 0.00 | 89 | 1015.6 |
| 20260902111555 | 74 | 249 | 0.0 | 0.0 | 0.00 | 0.00 | 0.00 | 89 | 1015.5 |
| 20260902110055 | 74 | 248 | 0.0 | 0.0 | 0.00 | 0.00 | 0.00 | 89 | 1015.6 |
| 20260902104553 | 74 | 248 | 0.0 | 0.0 | 0.00 | 0.00 | 0.00 | 89 | 1015.5 |
| 20260902103051 | 74 | 248 | 0.0 | 0.0 | 0.00 | 0.00 | 0.00 | 89 | 1015.5 |
| 20260902101548 | 74 | 248 | 0.0 | 0.0 | 0.00 | 0.00 | 0.00 | 88 | 1015.4 |
| 20260902100047 | 75 | 248 | 0.0 | 0.0 | 0.00 | 0.00 | 0.00 | 88 | 1015.3 |
| 20260902094551 | 75 | 248 | 0.0 | 0.0 | 0.00 | 0.00 | 0.00 | 88 | 1015.3 |